星链-31073 (STARLINK-31073 )

导读

STARLINK-31073是美国太空探索技术公司(SpaceX)于2024年1月14日发射的星链低轨通信卫星,属于Starlink全球卫星互联网项目。星链项目通过部署大规模低轨卫星星座,旨在为全球提供高速低延迟互联网接入服务,STARLINK-31073也将参与其中,助力填补偏远地区网络覆盖缺口,并为各类全球通信场景提供支持。

Basic Information
目录编号:
58773
目录名称:
STARLINK-31073
国际标识:
2024-011J
轨道中心:
EARTH
卫星名称:
星链-31073
卫星全名:
星链-31073 (STARLINK-31073 )
卫星状态:
在轨 (已飞行971 天)
发射日期:
2024-01-14 UTC
国别 :
美国 (US)
星等 :
--
This satellite is enrolled in the Space Conjunction Data Service (SCDS) and the current flight risk assessment level is: High Risk
Orbit Information
数据来源 国际轨道数据 AOE轨道数据
星历时间 2026-09-10T13:30:47+0800
1天前
查看轨道信息
2026-09-05T12:00:00+0800
6天前
查看轨道信息
半长轴 6840.888km 6840.873km
偏心率 0.0001577 0.0001252
轨道倾角 53.158° 53.159°
近地点辐角 82.581° 88.541°
升交点赤经 235.835° 259.505°
平近点角 277.538° 8.686°
近地点 461.672km 461.879km
远地点 463.83km 463.593km
周期 93.849分钟 93.848分钟
每日圈数 15.343842 15.343891
Detailed Information
固有亮度:
5
最大亮度:
0.3
卫星平台:
Starlink v2.0 mini
覆盖范围:
全球
运营商:
太空探索技术公司
运营商所在国:
美国
制造商(研发单位):
太空探索技术公司
制造商所在国:
美国
使用方式:
暂无
Satellite Introduction
星链(Starlink)计划是由太空探索技术公司(SpaceX)提出的一个巨型低轨卫星互联网星座项目,计划在2019年至2024年间在太空搭建由约1.2万颗卫星组成的“星链”网络,其中1584颗将部署在地球上空550千米处的近地轨道,并从2020年开始工作。该卫星仍在工作。
2D Orbit Map
3D Orbit Map
Orbit Altitude Analysis Chart
Orbit Inclination Analysis Chart
Orbit Comprehensive Analysis Chart
View Comprehensive Chart
Miss Distance Evolution Trend with All Objects
Collision Probability Evolution Trend with All Objects